Middletown, PA

9:23 AM EDT on April 22, 2018 (GMT -0400)
Harrisburg International

Weather History for KMDT - February, 2013

Change the Weather History Date:

Thursday, February 28, 2013

  Actual Average Record
Temperature  
Mean Temperature 39 °F 36 °F  
Max Temperature 44 °F 45 °F 68 °F (1976)
Min Temperature 34 °F 28 °F -1 °F (1934)
Degree Days  
Heating Degree Days 26 28  
Month to date heating degree days 924 898  
Since 1 July heating degree days 3791 3988  
Cooling Degree Days 0 0  
Month to date cooling degree days 0 0  
Year to date cooling degree days 0 0  
Moisture  
Dew Point 31 °F    
Average Humidity 75    
Maximum Humidity 92    
Minimum Humidity 57    
Precipitation  
Precipitation T in 0.10 in 1.15 in (1917)
Month to date precipitation 1.74 2.39  
Year to date precipitation 4.95 5.27  
Snow  
Snow T in 0.30 in 7.80 in (1917)
Month to date snowfall 3.5 10.5  
Since 1 July snowfall 13.3 25.0  
Snow Depth 0.00 in    
Sea Level Pressure  
Sea Level Pressure 29.65 in    
Wind  
Wind Speed 8 mph (WNW)    
Max Wind Speed 20 mph    
Max Gust Speed 25 mph    
Visibility 10 miles    
Events Rain    
T = Trace of Precipitation, MM = Missing Value Source: NWS Daily Summary

Daily Weather History Graph

Daily Weather History Graph

Search for Another Location

Airport or City:

Astronomy

Feb. 28, 2013 Rise Set
Actual Time 6:41 AM EST 5:57 PM EST
Civil Twilight 6:14 AM EST 6:25 PM EST
Nautical Twilight 5:42 AM EST 6:56 PM EST
Astronomical Twilight 5:11 AM EST 7:28 PM EST
Moon 9:22 PM EST (2/28) 7:49 AM EST (2/28)
Length of Visible Light 12h 10m
Length of Day
11h 16m
Waning Gibbous, 91% of the Moon is Illuminated
Feb 28
Waning Gibbous
Mar 4
Last Quarter
Mar 11
New
Mar 19
First Quarter
Mar 27
Full

Hourly Weather History & Observations

Time (EST) Temp. Windchill Dew Point Humidity Pressure Visibility Wind Dir Wind Speed Gust Speed Precip Events Conditions
12:56 AM 41.0 °F 39.0 °F 33.8 °F 76% 29.63 in 10.0 mi NW 3.5 mph - N/A   Overcast
1:56 AM 41.0 °F 35.2 °F 33.1 °F 73% 29.63 in 10.0 mi West 9.2 mph - N/A   Overcast
2:56 AM 41.0 °F 37.1 °F 33.1 °F 73% 29.63 in 10.0 mi West 5.8 mph - 0.00 in Rain Light Rain
3:56 AM 39.9 °F 32.9 °F 34.0 °F 79% 29.63 in 10.0 mi WNW 11.5 mph - 0.00 in   Overcast
4:07 AM 39.2 °F 31.6 °F 33.8 °F 81% 29.62 in 9.0 mi NW 12.7 mph - 0.00 in Rain Light Rain
4:56 AM 37.0 °F 33.3 °F 34.0 °F 89% 29.63 in 10.0 mi NW 4.6 mph - 0.00 in   Overcast
5:27 AM 37.4 °F 32.1 °F 33.8 °F 87% 29.63 in 10.0 mi West 6.9 mph - N/A   Overcast
5:41 AM 37.4 °F 32.8 °F 33.8 °F 87% 29.63 in 10.0 mi West 5.8 mph - N/A   Overcast
5:56 AM 37.0 °F 34.5 °F 33.1 °F 86% 29.64 in 10.0 mi West 3.5 mph - N/A   Mostly Cloudy
6:56 AM 36.0 °F - 33.1 °F 89% 29.64 in 10.0 mi Calm Calm - N/A   Mostly Cloudy
7:56 AM 36.0 °F - 34.0 °F 93% 29.66 in 10.0 mi Calm Calm - N/A   Mostly Cloudy
8:56 AM 41.0 °F 38.0 °F 28.9 °F 62% 29.65 in 10.0 mi NW 4.6 mph - N/A   Partly Cloudy
9:56 AM 43.0 °F 37.7 °F 28.0 °F 56% 29.65 in 10.0 mi West 9.2 mph - N/A   Scattered Clouds
10:56 AM 42.1 °F 34.9 °F 28.0 °F 58% 29.64 in 10.0 mi WNW 13.8 mph - N/A   Scattered Clouds
11:56 AM 42.1 °F 34.9 °F 28.0 °F 58% 29.64 in 10.0 mi West 13.8 mph - N/A   Overcast
12:56 PM 42.1 °F 34.9 °F 28.0 °F 58% 29.63 in 10.0 mi WNW 13.8 mph - N/A   Overcast
1:56 PM 39.9 °F 31.8 °F 30.0 °F 68% 29.62 in 8.0 mi West 15.0 mph - 0.00 in Rain Light Ice Pellets
2:56 PM 43.0 °F 36.8 °F 28.9 °F 58% 29.62 in 10.0 mi WNW 11.5 mph 20.7 mph 0.00 in   Overcast
3:56 PM 39.9 °F 35.1 °F 28.9 °F 65% 29.62 in 10.0 mi NW 6.9 mph - 0.00 in   Overcast
4:56 PM 41.0 °F 35.2 °F 28.0 °F 60% 29.63 in 10.0 mi NW 9.2 mph - N/A   Overcast
5:56 PM 39.2 °F 30.8 °F 26.6 °F 61% 29.64 in 10.0 mi WNW 15.0 mph 25.3 mph N/A   Overcast
6:56 PM 39.0 °F 31.8 °F 28.9 °F 67% 29.67 in 10.0 mi WNW 11.5 mph - N/A   Overcast
7:56 PM 37.9 °F 32.7 °F 28.9 °F 70% 29.68 in 10.0 mi West 6.9 mph - N/A   Scattered Clouds
8:56 PM 36.0 °F 30.3 °F 28.9 °F 76% 29.70 in 10.0 mi WNW 6.9 mph - N/A   Scattered Clouds
9:56 PM 36.0 °F 30.3 °F 28.9 °F 76% 29.70 in 10.0 mi NW 6.9 mph - N/A   Overcast
10:56 PM 35.1 °F 29.3 °F 28.9 °F 78% 29.70 in 10.0 mi WNW 6.9 mph - N/A   Mostly Cloudy
11:56 PM 37.0 °F 29.8 °F 30.0 °F 76% 29.69 in 10.0 mi WNW 10.4 mph - N/A   Mostly Cloudy